TimeAKDT,TemperatureF,Dew PointF,Humidity,Sea Level PressureIn,VisibilityMPH,Wind Direction,Wind SpeedMPH,Gust SpeedMPH,PrecipitationIn,Events,Conditions,WindDirDegrees,DateUTC
12:56 AM,54.0,52.0,93,29.75,10.0,South,3.5,-,0.01,,Overcast,190,2013-07-09 08:56:00
1:56 AM,55.0,50.0,83,29.76,10.0,SSW,4.6,-,0.00,Rain,Light Rain,200,2013-07-09 09:56:00
2:56 AM,54.0,50.0,86,29.78,10.0,SSW,4.6,-,0.00,,Overcast,210,2013-07-09 10:56:00
3:56 AM,53.1,48.9,86,29.80,10.0,SSW,8.1,-,N/A,,Scattered Clouds,210,2013-07-09 11:56:00
4:56 AM,52.0,48.0,86,29.82,10.0,WSW,6.9,-,N/A,,Partly Cloudy,240,2013-07-09 12:56:00
5:56 AM,52.0,46.9,83,29.84,10.0,WSW,8.1,-,N/A,,Clear,240,2013-07-09 13:56:00
6:30 AM,51.8,46.4,82,29.84,10.0,WSW,8.1,-,N/A,,Mostly Cloudy,250,2013-07-09 14:30:00
6:55 AM,51.8,46.4,82,29.85,10.0,WSW,9.2,-,N/A,,Mostly Cloudy,240,2013-07-09 14:55:00
7:55 AM,53.6,46.4,77,29.87,10.0,WSW,9.2,-,N/A,,Mostly Cloudy,250,2013-07-09 15:55:00
8:55 AM,55.4,46.4,72,29.88,10.0,WSW,5.8,-,N/A,,Mostly Cloudy,240,2013-07-09 16:55:00
9:55 AM,55.4,44.6,67,29.90,-9999.0,SW,5.8,-,N/A,,Mostly Cloudy,220,2013-07-09 17:55:00
10:58 AM,57.2,44.6,63,29.90,25.0,WSW,3.5,-,N/A,,Mostly Cloudy,250,2013-07-09 18:58:00
11:55 AM,60.8,44.6,55,29.90,25.0,SW,9.2,-,N/A,,Mostly Cloudy,230,2013-07-09 19:55:00
12:55 PM,60.8,44.6,55,29.91,25.0,WSW,13.8,-,N/A,,Mostly Cloudy,250,2013-07-09 20:55:00
1:55 PM,60.8,44.6,55,29.92,10.0,West,11.5,-,N/A,,Mostly Cloudy,270,2013-07-09 21:55:00
2:55 PM,62.6,44.6,52,29.93,10.0,West,10.4,-,N/A,,Mostly Cloudy,260,2013-07-09 22:55:00
3:55 PM,62.6,44.6,52,29.94,10.0,Variable,3.5,-,N/A,,Mostly Cloudy,0,2013-07-09 23:55:00
4:05 PM,60.8,44.6,55,29.93,10.0,Variable,3.5,-,N/A,Rain,Light Rain Showers,0,2013-07-10 00:05:00
4:22 PM,59.0,48.2,67,29.94,10.0,Variable,3.5,-,N/A,,Mostly Cloudy,0,2013-07-10 00:22:00
4:55 PM,62.6,44.6,52,29.94,10.0,Variable,6.9,-,N/A,,Mostly Cloudy,0,2013-07-10 00:55:00
5:55 PM,64.4,44.6,49,29.94,10.0,SW,13.8,-,N/A,,Mostly Cloudy,230,2013-07-10 01:55:00
6:55 PM,62.6,46.4,55,29.95,10.0,WSW,10.4,-,N/A,,Mostly Cloudy,250,2013-07-10 02:55:00
7:55 PM,62.6,46.4,55,29.96,10.0,West,10.4,17.3,N/A,,Mostly Cloudy,260,2013-07-10 03:55:00
8:55 PM,60.8,48.2,63,29.97,10.0,West,12.7,-,N/A,,Overcast,280,2013-07-10 04:55:00
9:55 PM,59.0,48.2,67,29.99,10.0,WSW,12.7,-,N/A,,Mostly Cloudy,250,2013-07-10 05:55:00
10:07 PM,59.0,48.2,67,29.98,10.0,West,10.4,-,N/A,,Overcast,260,2013-07-10 06:07:00
10:54 PM,57.2,48.2,72,29.99,10.0,West,12.7,-,N/A,,Overcast,280,2013-07-10 06:54:00
10:56 PM,57.9,48.0,70,30.00,10.0,West,10.4,-,N/A,,Overcast,260,2013-07-10 06:56:00
11:29 PM,57.2,48.2,72,29.99,10.0,WSW,12.7,-,N/A,,Overcast,240,2013-07-10 07:29:00
11:56 PM,57.0,48.0,72,30.00,10.0,WSW,11.5,-,N/A,,Overcast,250,2013-07-10 07:56:00